Regional Weather Roundup
Issued by NWS

Home | Current Version | Previous Version | Text Only | Print | Product List | Glossary Off
Versions: 1 2 3 4 5 6 7 8 9 10 11 12 13 14 15 16 17 18 19 20 21 22 23 24 25 26 27 28 29 30 31 32 33 34 35 36 37 38 39 40 41 42 43 44 45 46 47 48 49 50

000
ASUS43 KIND 250209
RWRIN

WEATHER ROUNDUP FOR INDIANA
NATIONAL WEATHER SERVICE INDIANAPOLIS IN
1000 PM EDT SAT SEP 24 2016

NOTE: "FAIR" INDICATES FEW OR NO CLOUDS BELOW 12,000 FEET WITH NO
SIGNIFICANT WEATHER AND/OR OBSTRUCTIONS TO VISIBILITY.

* - STATION DOES NOT REPORT WEATHER SUCH AS PRECIPITATION OR FOG.

+ - STATION NOT QUALITY CONTROLLED BY THE NATIONAL WEATHER SERVICE.
    USE DATA WITH CAUTION...ESPECIALLY DEWPOINT AND RELATIVE
    HUMIDITY OBSERVATIONS.

INZ001>003-010>013-019-020-250300-
NORTHWEST INDIANA

CITY           SKY/WX    TMP DP  RH WIND       PRES   REMARKS
GARY /AIRPORT/ CLEAR     70  66  88 E7        30.13R
KNOX *+        CLEAR     66  46  48 E5        30.13S
LA PORTE +     CLEAR     68  66  93 E3        30.15S
MICHIGAN CITY+ CLEAR     66  63  88 CALM      30.14S
MONTICELLO +   CLEAR     70  62  75 CALM      30.12R
RENSSELAER +   CLEAR     70  64  83 E5        30.13R
VALPARAISO     CLEAR     66  62  87 E5        30.14R

$$

LMZ046-743>745-250300-
SOUTHERN LAKE MICHIGAN

STATION/POSITION TIME  TEMP    WIND        PRES    WAVE
                       AIR SEA DIR/SP/G            HT
                 (UTC) (F)     (DEG/KT/KT) (MB)    (FT)
BURNS HARBOR     0111   67      90/  7/ 10 1020.3R
MICHIGAN CITY    0100   70      50/  7/  8   N/A
5NW MICH CITY    0200   69 71   90/  8/ 10   N/A     1

$$

INZ004-005-014>016-021>024-250300-
NORTH CENTRAL INDIANA

CITY           SKY/WX    TMP DP  RH WIND       PRES   REMARKS
GOSHEN         CLEAR     64  57  78 E6        30.16R
LOGANSPORT +   CLEAR     68  63  83 E5        30.14R
PERU/GRISSOM   CLEAR     69  64  82 E7        30.12S
ROCHESTER +    CLEAR     68  63  83 E5        30.15R
SOUTH BEND     CLEAR     66  60  81 E5        30.16R
WARSAW +       CLEAR     64  54  68 E7        30.16R

$$

INZ006>009-017-018-025>027-250300-
NORTHEAST INDIANA

CITY           SKY/WX    TMP DP  RH WIND       PRES   REMARKS
ANGOLA *+        N/A     63  52  67 SE6       30.19R
AUBURN +       CLEAR     63  55  77 E7        30.19R
FORT WAYNE     CLEAR     66  57  72 E10       30.17R
HUNTINGTON +   CLEAR     65  59  80 E5        30.16S
KENDALLVILLE + CLEAR     64  57  78 E7        30.18S

$$

INZ028-029-035-036-043>045-051>053-250300-
WEST CENTRAL INDIANA

CITY           SKY/WX    TMP DP  RH WIND       PRES   REMARKS
CRAWFORDSVL +  CLEAR     68  67  96 E3        30.11S
GREENCASTLE +  CLEAR     72  70  94 E5        30.11S
LAFAYETTE      CLEAR     70  66  87 E9        30.10S
TERRE HAUTE    CLEAR     73  67  81 E6        30.08R

$$

INZ030>032-037>040-046>048-054>057-064-065-250300-
CENTRAL INDIANA

CITY           SKY/WX    TMP DP  RH WIND       PRES   REMARKS
COLUMBUS       CLEAR     72  68  88 CALM      30.11R
FISHERS *+     CLEAR     68  68 100 CALM      30.12S
GREENWOOD *+   CLEAR    N/A N/A N/A E5        30.12R
INDIANAPOLIS   PTCLDY    74  66  76 E8        30.10S
-EAGLE CREEK   CLEAR     73  66  78 E6        30.11R
MARION +       CLEAR     67  62  84 E6        30.15S
MT COMFORT *+  CLEAR     66  64  94 CALM      30.13R
SHELBYVILLE    CLEAR     71  65  81 E5        30.11R
ZIONSVILLE +   CLEAR     68  65  90 E3        30.13S

$$

INZ033-034-041-042-049-050-058-059-250300-
EAST CENTRAL INDIANA

CITY           SKY/WX    TMP DP  RH WIND       PRES   REMARKS
MUNCIE         CLEAR     68  62  81 E6        30.14S

$$

INZ060-061-067>069-081>083-085>088-250300-
SOUTHWEST INDIANA

CITY           SKY/WX    TMP DP  RH WIND       PRES   REMARKS
EVANSVILLE     CLEAR     76  66  71 CALM      30.06R
HUNTINGBURG *+   N/A     73  63  68 NE8       30.07S
WASHINGTON +   CLEAR     72  69  92 MISG      30.07R

$$

INZ062-063-066-070>080-084-089>092-250300-
SOUTH CENTRAL AND SOUTHEAST INDIANA

CITY           SKY/WX    TMP DP  RH WIND       PRES   REMARKS
BLOOMINGTON    CLEAR     69  65  86 VRB3      30.10R
MADISON *+     CLEAR     72  66  83 NE6       30.13R
NORTH VERNON + CLEAR    N/A N/A N/A NE5       30.12R
SEYMOUR +      CLEAR     75  68  78 CALM      30.10

$$




USA.gov is the U.S. government's official web portal to all federal, state and local government web resources and services.